| time (UTC) | temp C | wind direction | speed KPH | gust KPH | rain 1hr cm | rain 24hr cm | rain mn cm | humidity % | barometer mb |
| 20260503200418 | 12 | 66 | 4.8 | 11.3 | 0.00 | 2.59 | 0.51 | 91 | 1012.7 |
| 20260503195917 | 12 | 52 | 4.8 | 8.0 | 0.00 | 2.59 | 0.51 | 91 | 1012.7 |
| 20260503195416 | 12 | 61 | 4.8 | 8.0 | 0.00 | 2.59 | 0.51 | 91 | 1012.7 |
| 20260503194935 | 12 | 90 | 4.8 | 8.0 | 0.00 | 2.59 | 0.51 | 91 | 1012.7 |
| 20260503194436 | 12 | 75 | 4.8 | 8.0 | 0.00 | 2.59 | 0.51 | 91 | 1012.6 |
| 20260503193936 | 12 | 95 | 3.2 | 4.8 | 0.00 | 2.59 | 0.51 | 91 | 1012.6 |
| 20260503193433 | 12 | 85 | 3.2 | 6.4 | 0.00 | 2.59 | 0.51 | 91 | 1012.5 |
| 20260503192930 | 12 | 83 | 3.2 | 9.7 | 0.00 | 2.59 | 0.51 | 91 | 1012.4 |
| 20260503192429 | 12 | 116 | 4.8 | 9.7 | 0.00 | 2.59 | 0.51 | 92 | 1012.4 |
| 20260503191927 | 12 | 97 | 3.2 | 11.3 | 0.00 | 2.59 | 0.51 | 92 | 1012.4 |
| 20260503191425 | 12 | 125 | 3.2 | 11.3 | 0.00 | 2.59 | 0.51 | 92 | 1012.2 |
| 20260503190922 | 12 | 105 | 3.2 | 14.5 | 0.00 | 2.59 | 0.51 | 92 | 1012.1 |
| 20260503190421 | 12 | 99 | 6.4 | 16.1 | 0.00 | 2.59 | 0.51 | 92 | 1011.9 |
| 20260503185919 | 12 | 119 | 9.7 | 16.1 | 0.00 | 3.30 | 0.51 | 92 | 1011.8 |
| 20260503185419 | 12 | 113 | 6.4 | 11.3 | 0.00 | 3.30 | 0.51 | 93 | 1011.8 |
| 20260503184918 | 12 | 73 | 3.2 | 8.0 | 0.00 | 3.30 | 0.51 | 92 | 1011.8 |
| 20260503184416 | 12 | 46 | 4.8 | 8.0 | 0.00 | 3.30 | 0.51 | 93 | 1011.8 |
| 20260503183917 | 12 | 89 | 3.2 | 8.0 | 0.00 | 3.30 | 0.51 | 93 | 1011.8 |
| 20260503183418 | 12 | 89 | 1.6 | 4.8 | 0.00 | 3.30 | 0.51 | 93 | 1011.8 |
| 20260503182915 | 12 | 56 | 0.0 | 4.8 | 0.00 | 3.30 | 0.51 | 93 | 1011.8 |
| 20260503182416 | 12 | 56 | 3.2 | 4.8 | 0.00 | 3.30 | 0.51 | 92 | 1011.8 |
| 20260503181929 | 12 | 56 | 3.2 | 6.4 | 0.00 | 3.30 | 0.51 | 92 | 1011.9 |
| 20260503181428 | 12 | 76 | 3.2 | 6.4 | 0.00 | 3.30 | 0.51 | 92 | 1012.0 |
| 20260503180926 | 12 | 107 | 0.0 | 3.2 | 0.00 | 3.30 | 0.51 | 92 | 1012.1 |
| 20260503180427 | 12 | 107 | 0.0 | 3.2 | 0.00 | 3.30 | 0.51 | 92 | 1012.2 |
| 20260503175925 | 12 | 107 | 0.0 | 3.2 | 0.10 | 3.30 | 0.51 | 92 | 1012.2 |
| 20260503175426 | 12 | 108 | 1.6 | 3.2 | 0.20 | 3.30 | 0.51 | 92 | 1012.2 |
| 20260503174924 | 12 | 106 | 0.0 | 4.8 | 0.41 | 3.30 | 0.51 | 91 | 1012.2 |
| 20260503174424 | 12 | 105 | 3.2 | 4.8 | 0.79 | 3.30 | 0.51 | 91 | 1012.2 |
| 20260503173922 | 12 | 268 | 1.6 | 4.8 | 1.09 | 3.30 | 0.51 | 91 | 1012.1 |
| 20260503173422 | 12 | 270 | 3.2 | 4.8 | 1.09 | 3.30 | 0.51 | 90 | 1012.1 |
| 20260503172943 | 12 | 274 | 1.6 | 3.2 | 1.19 | 3.30 | 0.51 | 90 | 1012.2 |
| 20260503172421 | 12 | 274 | 0.0 | 4.8 | 1.19 | 3.30 | 0.51 | 90 | 1012.2 |
| 20260503171920 | 12 | 274 | 1.6 | 6.4 | 1.19 | 3.30 | 0.51 | 90 | 1012.3 |
| 20260503171420 | 12 | 279 | 3.2 | 9.7 | 1.19 | 3.30 | 0.51 | 89 | 1012.3 |
| 20260503170919 | 12 | 276 | 4.8 | 12.9 | 1.19 | 3.30 | 0.51 | 88 | 1012.4 |
| 20260503170418 | 12 | 322 | 6.4 | 19.3 | 1.19 | 3.30 | 0.51 | 88 | 1012.5 |
| 20260503150924 | 17 | 118 | 8.0 | 20.9 | 0.00 | 2.31 | 0.25 | 79 | 1011.5 |
| 20260503150425 | 17 | 124 | 9.7 | 20.9 | 0.00 | 2.31 | 0.25 | 80 | 1011.6 |
| 20260503130924 | 15 | 93 | 3.2 | 8.0 | 0.00 | 1.60 | 0.08 | 84 | 1013.7 |
| 20260503130425 | 15 | 83 | 1.6 | 14.5 | 0.10 | 1.60 | 0.08 | 85 | 1013.7 |
| 20260503110420 | 15 | 133 | 9.7 | 16.1 | 0.00 | 1.19 | 0.00 | 82 | 1014.4 |
| 20260503090416 | 15 | 288 | 1.6 | 8.0 | 0.00 | 1.30 | 0.00 | 82 | 1014.7 |
| 20260503081434 | 15 | 240 | 1.6 | 4.8 | 0.00 | 1.30 | 0.00 | 86 | 1014.5 |
| 20260503080934 | 15 | 251 | 1.6 | 4.8 | 0.00 | 1.30 | 0.00 | 87 | 1014.6 |
| 20260503080432 | 15 | 270 | 3.2 | 4.8 | 0.00 | 1.30 | 0.00 | 88 | 1014.7 |
| 20260503072919 | 13 | 207 | 1.6 | 4.8 | 0.00 | 1.30 | 0.00 | 92 | 1014.6 |
| 20260503072418 | 13 | 254 | 1.6 | 3.2 | 0.00 | 1.30 | 0.00 | 93 | 1014.7 |
| 20260503071918 | 13 | 282 | 0.0 | 4.8 | 0.00 | 1.30 | 0.00 | 93 | 1014.7 |
| 20260503071416 | 12 | 282 | 0.0 | 4.8 | 0.00 | 1.30 | 0.00 | 93 | 1014.7 |
| 20260503070916 | 12 | 286 | 1.6 | 1.6 | 0.00 | 1.30 | 0.00 | 94 | 1014.8 |
| 20260503070414 | 12 | 286 | 0.0 | 1.6 | 0.00 | 1.30 | 0.00 | 93 | 1014.8 |
| 20260503054916 | 11 | 99 | 1.6 | 4.8 | 0.00 | 1.30 | 0.00 | 92 | 1014.4 |
| 20260503054416 | 11 | 98 | 1.6 | 8.0 | 0.00 | 1.30 | 0.00 | 91 | 1014.3 |
| 20260503053933 | 11 | 97 | 4.8 | 8.0 | 0.00 | 1.30 | 0.00 | 91 | 1014.3 |
| 20260503053431 | 11 | 95 | 3.2 | 8.0 | 0.00 | 1.30 | 0.00 | 91 | 1014.3 |
| 20260503052929 | 11 | 95 | 3.2 | 4.8 | 0.00 | 1.30 | 0.00 | 91 | 1014.3 |
| 20260503052429 | 11 | 99 | 3.2 | 4.8 | 0.00 | 1.30 | 0.00 | 92 | 1014.2 |
| 20260503051947 | 11 | 112 | 1.6 | 4.8 | 0.00 | 1.30 | 0.00 | 92 | 1014.2 |
| 20260503051426 | 11 | 135 | 3.2 | 8.0 | 0.00 | 1.30 | 0.00 | 91 | 1014.2 |
| 20260503050924 | 11 | 109 | 3.2 | 8.0 | 0.00 | 1.30 | 0.00 | 91 | 1014.2 |
| 20260503050440 | 11 | 143 | 4.8 | 9.7 | 0.00 | 1.30 | 0.00 | 91 | 1014.2 |
| 20260503045919 | 11 | 136 | 1.6 | 4.8 | 0.00 | 1.30 | 0.00 | 91 | 1014.2 |
| 20260503045418 | 11 | 144 | 1.6 | 9.7 | 0.00 | 1.30 | 0.00 | 92 | 1014.3 |
| 20260503044918 | 11 | 101 | 3.2 | 9.7 | 0.00 | 1.30 | 0.00 | 92 | 1014.3 |
| 20260503044416 | 11 | 158 | 1.6 | 11.3 | 0.00 | 1.30 | 0.00 | 92 | 1014.4 |
| 20260503043915 | 11 | 121 | 1.6 | 11.3 | 0.00 | 1.30 | 0.00 | 92 | 1014.3 |
| 20260503043413 | 11 | 202 | 4.8 | 11.3 | 0.00 | 1.30 | 0.00 | 93 | 1014.3 |
| 20260503042931 | 11 | 95 | 4.8 | 11.3 | 0.00 | 1.30 | 0.00 | 93 | 1014.2 |
| 20260503042431 | 11 | 105 | 4.8 | 11.3 | 0.00 | 1.30 | 0.00 | 92 | 1014.3 |
| 20260503041956 | 11 | 113 | 4.8 | 12.9 | 0.00 | 1.30 | 0.00 | 92 | 1014.3 |
| 20260503041432 | 10 | 112 | 4.8 | 8.0 | 0.00 | 1.30 | 0.00 | 92 | 1014.3 |
| 20260503040929 | 10 | 108 | 3.2 | 8.0 | 0.00 | 1.30 | 0.00 | 92 | 1014.4 |
| 20260503040447 | 10 | 107 | 3.2 | 4.8 | 0.00 | 1.30 | 0.00 | 92 | 1014.4 |
| 20260503035923 | 10 | 105 | 1.6 | 4.8 | 0.00 | 1.30 | 0.00 | 91 | 1014.5 |
| 20260503035444 | 10 | 106 | 3.2 | 4.8 | 0.00 | 1.30 | 0.00 | 90 | 1014.5 |
| 20260503034920 | 10 | 109 | 1.6 | 4.8 | 0.00 | 1.30 | 0.00 | 90 | 1014.5 |
| 20260503034419 | 11 | 112 | 1.6 | 3.2 | 0.00 | 1.30 | 0.00 | 90 | 1014.5 |
| 20260503033920 | 11 | 113 | 0.0 | 3.2 | 0.00 | 1.30 | 0.00 | 90 | 1014.7 |
| 20260503033419 | 11 | 113 | 0.0 | 3.2 | 0.00 | 1.30 | 0.00 | 90 | 1014.7 |
| 20260503032918 | 11 | 114 | 0.0 | 3.2 | 0.00 | 1.30 | 0.00 | 90 | 1014.6 |
| 20260503032416 | 11 | 114 | 1.6 | 3.2 | 0.00 | 1.30 | 0.00 | 90 | 1014.7 |
| 20260503031916 | 11 | 114 | 0.0 | 1.6 | 0.00 | 1.30 | 0.00 | 90 | 1014.6 |
| 20260503031415 | 11 | 114 | 0.0 | 1.6 | 0.00 | 1.30 | 0.00 | 90 | 1014.6 |
| 20260503030915 | 12 | 114 | 0.0 | 4.8 | 0.00 | 1.30 | 0.00 | 90 | 1014.6 |
| 20260503030413 | 12 | 114 | 3.2 | 8.0 | 0.00 | 1.30 | 0.00 | 90 | 1014.5 |
| 20260503025929 | 11 | 160 | 3.2 | 8.0 | 0.00 | 1.30 | 0.00 | 90 | 1014.6 |
| 20260503025428 | 11 | 128 | 3.2 | 8.0 | 0.00 | 1.30 | 0.00 | 90 | 1014.6 |
| 20260503024927 | 12 | 81 | 3.2 | 11.3 | 0.00 | 1.30 | 0.00 | 90 | 1014.5 |
| 20260503024425 | 12 | 118 | 4.8 | 11.3 | 0.00 | 1.30 | 0.00 | 90 | 1014.5 |
| 20260503023924 | 12 | 111 | 6.4 | 11.3 | 0.00 | 1.30 | 0.00 | 90 | 1014.6 |
| 20260503023423 | 12 | 178 | 3.2 | 11.3 | 0.00 | 1.30 | 0.00 | 90 | 1014.6 |
| 20260503022922 | 12 | 101 | 4.8 | 12.9 | 0.00 | 1.30 | 0.00 | 90 | 1014.5 |
| 20260503022420 | 12 | 124 | 1.6 | 16.1 | 0.00 | 1.30 | 0.00 | 90 | 1014.7 |
| 20260503021918 | 12 | 143 | 4.8 | 14.5 | 0.00 | 1.30 | 0.00 | 90 | 1014.7 |
| 20260503021436 | 12 | 161 | 3.2 | 9.7 | 0.00 | 1.30 | 0.00 | 90 | 1014.8 |
| 20260503020949 | 12 | 103 | 4.8 | 11.3 | 0.00 | 1.30 | 0.00 | 90 | 1014.8 |
| 20260503020426 | 12 | 109 | 3.2 | 11.3 | 0.00 | 1.30 | 0.00 | 90 | 1015.0 |
| 20260503015924 | 12 | 109 | 3.2 | 22.5 | 0.00 | 1.30 | 0.00 | 90 | 1014.9 |
| 20260503015421 | 12 | 24 | 8.0 | 22.5 | 0.00 | 1.30 | 0.00 | 90 | 1014.9 |
| 20260503014920 | 12 | 79 | 4.8 | 11.3 | 0.00 | 1.30 | 0.00 | 90 | 1015.0 |
| 20260503014419 | 12 | 107 | 4.8 | 12.9 | 0.00 | 1.30 | 0.00 | 90 | 1015.1 |
| 20260503013939 | 12 | 81 | 4.8 | 12.9 | 0.00 | 1.30 | 0.00 | 90 | 1015.2 |
| 20260503013415 | 12 | 67 | 3.2 | 8.0 | 0.00 | 1.30 | 0.00 | 90 | 1015.2 |
| 20260503012935 | 12 | 93 | 1.6 | 8.0 | 0.00 | 1.30 | 0.00 | 90 | 1015.3 |
| 20260503012433 | 12 | 70 | 0.0 | 6.4 | 0.00 | 1.30 | 0.00 | 90 | 1015.3 |
| 20260503011931 | 12 | 104 | 3.2 | 6.4 | 0.00 | 1.30 | 0.00 | 90 | 1015.3 |
| 20260503011429 | 12 | 116 | 1.6 | 12.9 | 0.00 | 1.30 | 0.00 | 90 | 1015.5 |
| 20260503010928 | 12 | 138 | 1.6 | 17.7 | 0.00 | 1.30 | 0.00 | 90 | 1015.5 |
| 20260503010426 | 12 | 143 | 9.7 | 17.7 | 0.00 | 1.30 | 0.00 | 90 | 1015.5 |
| 20260503005919 | 12 | 73 | 3.2 | 11.3 | 0.00 | 1.30 | 0.00 | 90 | 1015.5 |
| 20260503005419 | 12 | 160 | 3.2 | 16.1 | 0.00 | 1.30 | 0.00 | 90 | 1015.5 |
| 20260503004919 | 12 | 103 | 3.2 | 22.5 | 0.00 | 1.30 | 0.00 | 90 | 1015.5 |
| 20260503004418 | 12 | 137 | 4.8 | 22.5 | 0.00 | 1.30 | 0.00 | 90 | 1015.3 |
| 20260503003918 | 12 | 118 | 6.4 | 16.1 | 0.00 | 1.30 | 0.00 | 91 | 1015.5 |
| 20260503003417 | 12 | 139 | 3.2 | 17.7 | 0.00 | 1.30 | 0.00 | 91 | 1015.6 |
| 20260503002916 | 12 | 96 | 3.2 | 17.7 | 0.00 | 1.30 | 0.00 | 91 | 1015.6 |
| 20260503002414 | 12 | 85 | 4.8 | 9.7 | 0.00 | 1.30 | 0.00 | 91 | 1015.7 |
| 20260503001932 | 12 | 101 | 4.8 | 11.3 | 0.00 | 1.30 | 0.00 | 91 | 1015.7 |
| 20260503001431 | 12 | 114 | 6.4 | 11.3 | 0.00 | 1.30 | 0.00 | 91 | 1015.7 |
| 20260503000928 | 12 | 7 | 8.0 | 12.9 | 0.00 | 1.30 | 0.00 | 91 | 1015.6 |
| 20260503000427 | 12 | 99 | 6.4 | 14.5 | 0.00 | 1.30 | 0.00 | 91 | 1015.6 |
| 20260502235926 | 12 | 110 | 9.7 | 17.7 | 0.00 | 1.30 | 0.00 | 91 | 1015.7 |
| 20260502235425 | 12 | 115 | 11.3 | 17.7 | 0.00 | 1.30 | 0.00 | 91 | 1015.7 |
| 20260502234924 | 12 | 91 | 11.3 | 19.3 | 0.00 | 1.30 | 0.00 | 91 | 1015.8 |
| 20260502234422 | 12 | 143 | 8.0 | 19.3 | 0.00 | 1.30 | 0.00 | 91 | 1015.8 |
| 20260502233928 | 12 | 114 | 8.0 | 16.1 | 0.00 | 1.30 | 0.00 | 91 | 1015.9 |
| 20260502233416 | 12 | 107 | 4.8 | 12.9 | 0.00 | 1.30 | 0.00 | 91 | 1015.9 |
| 20260502232915 | 12 | 91 | 4.8 | 11.3 | 0.00 | 1.30 | 0.00 | 91 | 1015.9 |
| 20260502232436 | 11 | 97 | 4.8 | 11.3 | 0.00 | 1.30 | 0.00 | 91 | 1015.9 |
| 20260502231916 | 11 | 94 | 3.2 | 14.5 | 0.00 | 1.30 | 0.00 | 91 | 1015.9 |
| 20260502231432 | 11 | 105 | 8.0 | 14.5 | 0.00 | 1.30 | 0.00 | 91 | 1015.8 |
| 20260502230931 | 11 | 7 | 4.8 | 11.3 | 0.00 | 1.30 | 0.00 | 91 | 1015.9 |
| 20260502230431 | 12 | 97 | 4.8 | 14.5 | 0.00 | 1.30 | 0.00 | 91 | 1015.9 |
| 20260502225922 | 12 | 105 | 8.0 | 14.5 | 0.00 | 1.30 | 0.00 | 92 | 1016.0 |
| 20260502225421 | 12 | 89 | 4.8 | 16.1 | 0.00 | 1.30 | 0.00 | 92 | 1016.0 |
| 20260502224919 | 12 | 108 | 8.0 | 16.1 | 0.00 | 1.30 | 0.00 | 92 | 1016.1 |
| 20260502224417 | 12 | 96 | 8.0 | 14.5 | 0.00 | 1.30 | 0.00 | 92 | 1016.0 |
| 20260502223938 | 12 | 99 | 4.8 | 12.9 | 0.00 | 1.30 | 0.00 | 92 | 1016.1 |
| 20260502223415 | 12 | 110 | 3.2 | 12.9 | 0.00 | 1.30 | 0.00 | 92 | 1016.0 |
| 20260502222935 | 12 | 93 | 6.4 | 12.9 | 0.00 | 1.30 | 0.00 | 92 | 1015.9 |
| 20260502222441 | 12 | 100 | 4.8 | 9.7 | 0.00 | 1.30 | 0.00 | 92 | 1016.0 |
| 20260502221940 | 12 | 128 | 3.2 | 12.9 | 0.00 | 1.30 | 0.00 | 92 | 1015.9 |
| 20260502221416 | 12 | 115 | 4.8 | 12.9 | 0.00 | 1.30 | 0.00 | 93 | 1015.9 |
| 20260502220917 | 12 | 77 | 6.4 | 12.9 | 0.00 | 1.30 | 0.00 | 93 | 1015.8 |
| 20260502220438 | 12 | 116 | 4.8 | 12.9 | 0.00 | 1.30 | 0.00 | 93 | 1015.9 |
| 20260502215937 | 12 | 149 | 4.8 | 14.5 | 0.00 | 1.30 | 0.25 | 93 | 1015.8 |
| 20260502215434 | 12 | 117 | 3.2 | 8.0 | 0.00 | 1.30 | 0.25 | 93 | 1015.8 |
| 20260502214931 | 12 | 104 | 3.2 | 4.8 | 0.00 | 1.30 | 0.25 | 93 | 1015.7 |
| 20260502214429 | 12 | 106 | 1.6 | 3.2 | 0.00 | 1.30 | 0.25 | 93 | 1015.8 |
| 20260502213928 | 12 | 105 | 0.0 | 1.6 | 0.00 | 1.30 | 0.25 | 93 | 1015.8 |
| 20260502213428 | 12 | 105 | 0.0 | 3.2 | 0.00 | 1.30 | 0.25 | 93 | 1015.7 |
| 20260502212942 | 12 | 105 | 1.6 | 8.0 | 0.00 | 1.30 | 0.25 | 93 | 1015.8 |
| 20260502212418 | 12 | 105 | 1.6 | 11.3 | 0.00 | 1.30 | 0.25 | 93 | 1015.7 |
| 20260502211915 | 12 | 106 | 3.2 | 8.0 | 0.10 | 1.30 | 0.25 | 94 | 1015.6 |
| 20260502211413 | 12 | 82 | 3.2 | 9.7 | 0.10 | 1.30 | 0.25 | 93 | 1015.6 |
| 20260502210939 | 12 | 96 | 3.2 | 8.0 | 0.10 | 1.30 | 0.25 | 93 | 1015.6 |
| 20260502210431 | 12 | 106 | 1.6 | 8.0 | 0.10 | 1.30 | 0.25 | 93 | 1015.6 |
| 20260502205931 | 12 | 112 | 3.2 | 8.0 | 0.10 | 1.30 | 0.25 | 93 | 1015.6 |
| 20260502205430 | 12 | 87 | 3.2 | 8.0 | 0.10 | 1.30 | 0.25 | 93 | 1015.6 |
| 20260502204928 | 12 | 101 | 3.2 | 6.4 | 0.10 | 1.30 | 0.25 | 93 | 1015.7 |
| 20260502204427 | 12 | 91 | 3.2 | 8.0 | 0.10 | 1.30 | 0.25 | 93 | 1015.6 |
| 20260502203926 | 12 | 107 | 4.8 | 11.3 | 0.10 | 1.30 | 0.25 | 94 | 1015.3 |
| 20260502203442 | 12 | 114 | 4.8 | 9.7 | 0.10 | 1.30 | 0.25 | 94 | 1015.3 |
| 20260502202918 | 12 | 83 | 4.8 | 12.9 | 0.10 | 1.30 | 0.25 | 94 | 1015.2 |
| 20260502202417 | 12 | 95 | 6.4 | 12.9 | 0.10 | 1.30 | 0.25 | 94 | 1015.4 |
| 20260502201917 | 12 | 72 | 6.4 | 9.7 | 0.00 | 1.19 | 0.23 | 94 | 1015.4 |
| 20260502201442 | 12 | 106 | 4.8 | 9.7 | 0.00 | 1.19 | 0.23 | 94 | 1015.5 |
| 20260502200921 | 12 | 97 | 1.6 | 3.2 | 0.00 | 1.19 | 0.23 | 93 | 1015.7 |
| 20260502200440 | 12 | 99 | 1.6 | 4.8 | 0.00 | 1.19 | 0.23 | 93 | 1015.8 |